Regional Weather Roundup
Issued by NWS

Home | Current Version | Previous Version | Graphics & Text | Print | Product List | Glossary On
Versions: 1 2 3 4 5 6 7 8 9 10 11 12 13 14 15 16 17 18 19 20 21 22 23 24 25 26 27 28 29 30 31 32 33 34 35 36 37 38 39 40 41 42 43 44 45 46 47 48 49 50
000
ASUS45 KSLC 010010
RWRUT

UTAH REGIONAL WEATHER ROUNDUP
NATIONAL WEATHER SERVICE SALT LAKE CITY UT
600 PM MDT FRI SEP 30 2016

UTZ001>011-023>025-010100-

NORTHERN UTAH

CITY           SKY/WX    TMP DP  RH WIND       PRES   REMARKS
BRIGHAM CITY     N/A     76  40  27 SW3       30.10F
HILL AFB       SUNNY     74  45  34 S7        30.12F
LOGAN          SUNNY     76  49  38 NE6       30.10F
OGDEN          SUNNY     76  44  32 S7        30.09F
PROVO AIRPORT  MOSUNNY   72  51  47 N9        30.11F
SALT LAKE CITY PTSUNNY   74  45  35 SE5       30.08F
VERNAL         CLOUDY    67  46  47 NW8       30.19F
WENDOVER         N/A    N/A N/A N/A CALM        N/A
HEBER CITY     PTSUNNY   68  43  40 NW7       30.17S
WEST JORDAN    MOSUNNY   73  45  35 CALM      30.12F

$$

UTZ012>022-026-027-010100-

SOUTHERN/CENTRAL UTAH

CITY           SKY/WX    TMP DP  RH WIND       PRES   REMARKS
BLANDING       MOSUNNY   65  52  63 W6        30.31S
BRYCE CANYON   MOSUNNY   60  45  57 SE12      30.32F
CEDAR CITY     PTSUNNY   69  46  43 SE22      30.19S
DELTA          MOSUNNY   77  37  24 S3        30.10F
MILFORD        MOSUNNY   76  42  29 S16       30.11F
MOAB/CYNLANDS  SUNNY     74  51  44 CALM      30.14F
PRICE          CLOUDY    66  48  52 CALM      30.23F
ST GEORGE      PTCLDY    84  50  30 SE7       30.05F

$$

REGIONAL REPORTS     COLORADO/ARIZONA

CITY           SKY/WX    TMP DP  RH WIND       PRES   REMARKS
CRAIG, CO      CLOUDY    60  48  64 E6        30.24S
GRAND JUNCTION SUNNY     72  51  47 NW3       30.18S
RIFLE          CLOUDY    66  47  50 W13       30.22S
MONTROSE       CLOUDY    64  46  52 S13       30.26S
CORTEZ         SUNNY     70  48  45 W9        30.23F
PAGE, AZ       MOSUNNY   74  51  44 VRB3      30.14F
GRAND CANYON   MOSUNNY   67  44  43 SW6       30.29F
KINGMAN        MOSUNNY   81  50  34 E9        30.08F
FLAGSTAFF      CLOUDY    60  49  66 NE12      30.31R

$$

REGIONAL REPORTS    NEVADA/IDAHO/WYOMING

CITY           SKY/WX    TMP DP  RH WIND       PRES   REMARKS
LAS VEGAS, NV  MOSUNNY   91  42  18 E9        29.94F
ELY            MOSUNNY   74  33  22 SW10      30.16F
ELKO           PTSUNNY   70  41  34 E5        30.05R
POCATELLO, ID  MOSUNNY   75  45  34 S10       30.08S
BURLEY         MOSUNNY   74  50  42 E10       30.01F
EVANSTON, WY   MOSUNNY   63  40  42 N6        30.26F
ROCK SPRINGS   PTSUNNY   65  42  43 S8        30.23S

$$



USA.gov is the U.S. government's official web portal to all federal, state and local government web resources and services.